Wind_Speed
51 51 52 52 53 53 53 53 52 51 51 51 51 50 49 49 49 49 48 47 46 46 44 43 42 42 42 42 42 41 41 40 39 39 38 37 37 37 37 37 37 36 35
49 50 51 51 52 52 52 52 51 51 51 51 51 50 50 49 49 48 47 46 45 44 43 42 41 41 41 41 41 40 39 39 38 37 37 37 36 36 37 37 36 35 34
48 48 49 49 50 51 51 51 50 50 50 50 50 49 49 48 47 47 46 45 44 43 42 41 40 40 40 39 39 38 38 38 37 37 36 36 36 36 36 36 35 34 34
45 46 47 47 47 48 49 49 49 49 49 49 48 47 47 46 46 44 44 43 43 42 41 40 39 39 38 38 37 37 37 36 36 36 35 36 36 36 35 35 35 35 35
42 43 44 44 44 44 45 45 45 46 46 46 46 45 44 44 44 43 42 41 41 40 39 39 39 38 37 37 36 36 35 35 35 35 35 35 35 35 35 35 35 35 35
39 40 41 42 42 42 42 43 43 43 43 42 41 41 41 42 41 41 40 40 39 39 39 38 37 36 36 36 35 34 34 34 34 34 35 35 35 34 34 35 35 36 36
37 38 39 39 40 40 41 41 41 41 40 40 40 39 39 39 38 38 38 38 38 38 37 37 36 35 35 35 34 34 34 34 34 34 34 34 34 34 35 35 36 37 38
35 36 37 37 38 39 39 39 39 39 39 39 39 39 38 38 38 38 38 37 37 36 36 35 35 35 34 33 33 33 33 34 33 33 34 34 34 35 36 36 37 38 39
34 34 35 36 36 37 38 38 38 38 38 37 37 37 37 37 37 37 36 36 35 35 35 34 34 33 33 33 33 33 33 33 33 33 34 34 35 36 37 37 38 39 40
32 32 33 33 34 35 36 36 37 37 37 36 36 35 35 35 35 35 35 35 34 34 34 33 33 32 32 33 33 33 33 33 33 34 34 34 35 36 37 38 39 40 40
31 31 32 32 33 33 34 35 35 35 35 35 35 35 35 34 34 34 33 33 33 32 32 32 32 32 32 32 32 32 33 33 33 34 34 36 37 37 38 39 40 41 42
29 30 30 30 31 31 31 32 32 32 32 33 33 33 32 32 32 32 31 31 31 31 31 31 31 31 32 32 32 32 33 33 34 35 36 37 37 38 39 40 41 42 43
28 29 29 29 29 30 30 30 30 30 31 31 32 32 32 31 31 31 31 30 30 30 30 31 31 31 31 31 32 33 34 34 35 36 37 37 38 39 39 40 42 43 44
27 28 28 28 29 29 30 30 30 30 29 30 30 30 30 30 30 30 30 30 30 30 31 31 31 31 31 32 33 34 34 35 36 37 38 38 39 39 40 41 43 44 45
26 27 27 27 27 27 28 28 28 29 29 29 29 29 29 29 29 29 29 30 30 30 31 31 31 31 32 33 34 35 35 36 37 38 38 39 39 40 41 42 44 45 45
26 26 26 26 26 27 27 27 28 28 28 28 28 28 29 29 29 29 30 30 31 31 31 31 32 32 33 34 35 36 36 37 38 38 39 39 40 41 42 43 44 45 45
27 27 27 27 27 27 27 27 28 28 28 29 29 29 29 30 30 30 31 31 31 32 32 32 33 34 35 35 36 37 37 38 38 39 39 40 41 43 44 45 45 46 46
27 28 28 28 28 28 28 28 28 28 29 29 29 29 30 30 31 31 31 32 32 33 33 34 35 35 36 37 37 38 38 38 39 40 41 42 43 44 45 45 46 46 46
27 28 28 28 28 28 28 28 28 29 29 30 30 30 31 31 31 32 32 33 33 34 35 35 36 37 37 38 38 39 39 40 40 41 42 43 43 44 45 46 46 46 46
27 28 28 28 28 29 29 29 29 29 30 30 31 32 32 32 33 33 33 34 35 35 36 37 37 37 38 39 39 40 40 41 41 42 43 44 44 45 46 46 45 45 45
28 28 28 28 29 29 30 30 31 31 31 32 32 33 33 34 34 35 35 35 36 36 37 37 38 39 40 40 41 41 41 42 42 43 43 44 45 46 46 46 45 45 44
29 30 29 29 30 30 31 31 31 32 33 34 34 35 35 35 36 36 36 37 37 38 38 39 39 40 41 41 42 42 42 43 43 44 44 45 46 45 45 45 45 44 44
29 30 31 31 31 32 32 32 33 33 34 35 35 36 36 37 37 37 38 38 39 39 39 40 40 41 41 42 42 42 43 43 43 44 45 45 45 45 45 45 44 44 44
29 30 30 31 31 32 32 33 33 34 35 35 36 36 37 37 38 38 39 39 40 40 40 41 41 42 42 42 42 43 43 43 43 44 45 45 45 45 45 45 45 45 45
29 30 30 31 31 32 32 33 33 34 35 35 36 37 37 38 38 39 39 39 40 40 41 41 42 42 42 42 42 43 43 43 44 44 45 45 45 45 45 45 45 45 45
29 29 30 30 31 31 32 32 33 33 34 35 35 36 37 37 38 38 39 40 40 41 42 42 42 43 43 43 43 43 43 44 44 45 45 45 45 45 45 45 45 45 45
Wind_Direction
248 250 252 253 254 255 256 257 259 259 260 261 263 264 266 268 270 272 274 276 277 279 279 281 281 282 284 286 287 289 290 290 291 291 291 292 293 295 296 297 297 297 297
249 251 252 253 254 255 256 258 259 260 261 262 263 265 267 268 270 272 273 274 276 277 278 279 280 282 284 285 286 287 288 289 290 290 291 292 293 295 296 297 297 296 297
251 251 253 254 254 256 257 258 260 261 262 263 264 266 267 268 269 270 271 273 274 275 276 278 279 282 283 284 286 286 287 288 289 290 291 292 293 294 295 296 296 296 297
252 253 254 254 255 256 257 258 260 261 262 263 265 266 267 268 268 269 270 272 273 274 276 277 279 281 283 284 285 285 287 288 289 290 291 292 293 294 295 296 296 297 297
254 254 255 256 257 258 259 259 261 261 262 263 265 266 267 267 267 268 269 270 272 274 275 277 279 280 281 282 283 285 286 288 289 291 292 292 293 294 295 295 296 297 297
255 256 256 256 257 259 260 260 261 262 263 264 264 265 266 266 267 267 268 269 271 273 274 276 278 279 280 282 283 285 286 288 289 291 291 292 294 295 295 296 297 297 298
256 257 257 257 258 259 259 260 260 261 262 262 263 264 265 265 265 266 267 269 270 272 273 275 276 277 279 281 283 284 286 288 289 291 292 293 294 295 296 297 298 298 299
257 258 258 258 258 259 259 260 260 260 261 261 262 262 263 264 264 265 266 268 269 270 272 274 276 277 278 281 283 284 286 287 289 290 291 293 294 295 296 297 298 299 300
258 259 259 260 260 260 259 260 260 261 261 261 261 262 262 263 263 264 265 267 268 269 271 273 275 276 278 281 283 284 286 287 289 290 291 293 295 296 297 298 299 300 301
258 259 260 260 260 260 260 260 261 261 260 260 260 261 261 262 262 264 265 266 267 268 270 271 274 276 279 280 283 284 286 287 289 291 292 294 296 297 298 299 300 301 302
259 260 260 261 261 261 261 260 260 260 259 259 260 260 260 261 261 262 263 264 265 267 269 271 274 276 278 281 283 285 286 288 289 291 293 295 296 298 299 300 301 302 302
259 260 260 261 261 261 261 260 258 258 258 258 259 258 258 259 260 261 262 264 266 268 270 272 274 277 279 281 284 286 287 289 291 293 295 296 297 298 299 300 301 302 303
259 260 260 261 262 261 262 261 259 259 259 258 258 258 258 258 259 260 262 265 267 268 270 272 274 277 279 282 285 287 289 290 292 294 296 297 298 299 300 301 302 303 304
260 261 262 262 263 262 262 261 260 260 259 258 257 257 257 258 259 260 262 264 267 269 270 272 274 276 280 283 286 288 290 292 293 295 296 297 298 299 300 302 303 304 305
261 262 263 262 263 263 262 261 259 259 258 258 257 257 258 258 260 261 263 266 268 269 271 273 275 277 281 284 287 289 291 292 294 295 296 297 298 299 301 303 304 305 305
261 262 262 262 263 263 263 261 259 259 259 259 258 258 259 260 261 263 265 266 268 269 271 273 276 279 282 285 288 290 292 293 294 295 296 297 298 300 302 303 304 305 305
261 262 262 262 263 263 263 263 261 260 260 260 259 259 260 261 262 263 265 267 268 270 271 274 277 280 284 287 289 291 292 293 294 295 296 297 299 300 302 303 304 305 305
262 262 263 263 263 263 264 264 263 262 261 260 261 261 262 263 263 265 267 268 269 271 273 275 279 282 285 288 289 291 292 293 294 295 296 298 299 301 302 303 304 305 305
264 264 263 263 263 263 264 264 263 262 261 261 262 263 264 264 265 266 267 269 270 272 274 277 280 283 286 288 290 291 292 293 294 295 297 298 300 301 302 303 304 305 305
265 265 264 264 264 264 263 263 263 263 263 262 263 264 265 266 266 267 268 269 271 273 276 278 280 283 286 288 290 291 293 293 295 296 298 299 300 302 303 303 304 304 305
265 265 266 265 265 265 264 264 264 264 264 265 265 265 266 267 268 269 270 271 272 274 277 279 281 283 286 288 290 291 292 293 295 296 298 299 300 302 303 303 304 304 304
265 265 265 266 266 266 266 265 265 265 265 265 265 266 267 268 269 270 271 272 273 275 278 280 282 284 286 288 289 291 292 293 295 296 298 299 300 301 302 303 303 303 304
267 267 267 266 267 267 267 267 267 267 267 267 267 267 268 269 270 271 272 273 275 277 278 280 282 284 286 287 289 290 291 293 294 296 298 299 300 301 302 302 302 303 304
269 268 268 268 268 268 268 268 268 268 268 268 268 268 269 270 271 272 273 275 276 277 279 281 283 285 286 287 289 290 291 293 294 296 298 299 300 300 301 301 302 303 303
270 270 270 269 269 269 269 269 269 269 269 269 269 270 270 271 272 273 275 276 277 278 280 282 283 285 286 287 288 290 291 292 294 296 297 299 299 300 300 301 302 303 303
271 271 271 271 270 270 270 271 271 271 271 271 271 271 272 273 274 274 275 276 277 279 280 282 283 284 285 286 287 288 290 292 294 295 297 298 298 299 300 301 302 302 303
Height
5728 5731 5733 5735 5737 5739 5741 5742 5744 5745 5746 5747 5748 5749 5749 5749 5749 5749 5749 5748 5747 5746 5744 5742 5741 5739 5737 5734 5731 5728 5725 5722 5720 5717 5713 5710 5707 5704 5700 5696 5693 5690 5686
5718 5720 5722 5724 5726 5728 5730 5731 5732 5734 5735 5736 5737 5737 5738 5738 5738 5738 5737 5737 5736 5735 5734 5732 5730 5728 5726 5724 5721 5719 5716 5713 5710 5707 5704 5701 5698 5695 5691 5688 5684 5681 5678
5707 5709 5711 5713 5715 5716 5718 5720 5721 5722 5723 5724 5725 5726 5726 5726 5727 5726 5726 5726 5725 5724 5723 5722 5720 5718 5716 5714 5711 5709 5706 5704 5701 5698 5695 5692 5689 5686 5682 5679 5675 5672 5669
5697 5699 5700 5702 5704 5705 5706 5708 5709 5711 5712 5713 5713 5714 5715 5715 5715 5715 5715 5715 5714 5714 5713 5711 5710 5708 5706 5704 5702 5699 5697 5694 5692 5689 5686 5683 5680 5677 5673 5670 5667 5663 5660
5687 5688 5690 5691 5693 5694 5696 5697 5698 5699 5700 5701 5702 5703 5703 5704 5704 5704 5704 5704 5704 5703 5702 5701 5700 5698 5696 5694 5692 5690 5688 5685 5683 5680 5677 5674 5671 5668 5665 5661 5658 5654 5651
5677 5678 5680 5681 5682 5684 5685 5686 5687 5688 5689 5690 5691 5692 5692 5693 5693 5693 5693 5694 5693 5693 5692 5691 5690 5688 5686 5685 5683 5681 5679 5676 5674 5671 5668 5665 5662 5659 5655 5652 5649 5645 5642
5667 5668 5670 5671 5672 5673 5674 5675 5676 5677 5678 5679 5680 5681 5682 5682 5682 5683 5683 5683 5683 5683 5682 5681 5680 5678 5677 5675 5673 5671 5669 5667 5665 5662 5659 5656 5653 5650 5647 5643 5639 5636 5632
5658 5659 5660 5661 5662 5663 5664 5665 5666 5667 5668 5669 5669 5670 5671 5672 5672 5672 5673 5673 5673 5672 5672 5671 5670 5669 5667 5666 5664 5662 5660 5658 5655 5653 5650 5647 5644 5640 5637 5634 5630 5626 5621
5649 5650 5650 5651 5652 5653 5654 5655 5656 5656 5657 5658 5659 5660 5661 5661 5662 5662 5662 5663 5663 5662 5662 5661 5661 5659 5658 5657 5655 5653 5651 5649 5646 5643 5641 5638 5634 5631 5627 5624 5620 5615 5611
5640 5641 5641 5642 5642 5643 5644 5645 5646 5646 5647 5648 5649 5650 5650 5651 5652 5652 5652 5653 5653 5653 5652 5652 5651 5650 5649 5647 5646 5644 5642 5640 5637 5634 5631 5628 5625 5621 5617 5613 5609 5605 5600
5632 5632 5632 5633 5633 5634 5634 5635 5636 5637 5638 5638 5639 5640 5641 5642 5642 5643 5643 5643 5643 5643 5643 5642 5642 5641 5640 5638 5637 5635 5633 5630 5628 5625 5622 5618 5615 5611 5607 5603 5598 5594 5589
5623 5624 5624 5624 5625 5625 5625 5626 5627 5627 5628 5629 5630 5631 5631 5632 5633 5633 5634 5634 5634 5634 5634 5633 5633 5632 5630 5629 5627 5625 5623 5621 5618 5615 5612 5608 5605 5601 5596 5592 5587 5583 5578
5615 5615 5616 5616 5616 5617 5617 5617 5618 5619 5619 5620 5621 5622 5623 5623 5624 5624 5625 5625 5625 5625 5625 5624 5624 5622 5621 5620 5618 5616 5614 5611 5608 5605 5602 5598 5594 5590 5586 5581 5576 5571 5566
5607 5608 5608 5608 5608 5608 5609 5609 5610 5610 5611 5611 5612 5613 5614 5615 5615 5615 5616 5616 5616 5616 5616 5615 5614 5613 5612 5611 5609 5606 5604 5601 5598 5595 5591 5587 5583 5579 5575 5570 5565 5560 5554
5600 5600 5600 5600 5600 5601 5601 5601 5602 5602 5603 5603 5604 5605 5605 5606 5607 5607 5607 5607 5607 5607 5607 5606 5605 5604 5603 5601 5599 5596 5594 5591 5587 5584 5580 5576 5572 5568 5563 5559 5553 5548 5542
5592 5592 5592 5592 5593 5593 5593 5593 5594 5594 5595 5595 5596 5597 5597 5598 5598 5598 5598 5598 5598 5598 5598 5597 5596 5595 5593 5591 5589 5586 5583 5580 5577 5573 5569 5565 5561 5557 5552 5547 5541 5536 5530
5584 5584 5584 5585 5585 5585 5585 5586 5586 5586 5587 5587 5588 5588 5589 5589 5589 5589 5589 5589 5589 5589 5588 5587 5586 5585 5583 5581 5578 5576 5573 5569 5566 5562 5558 5554 5550 5545 5540 5535 5529 5524 5518
5576 5576 5577 5577 5577 5577 5577 5578 5578 5578 5579 5579 5579 5580 5580 5580 5580 5580 5580 5580 5580 5579 5579 5577 5576 5575 5573 5570 5568 5565 5562 5558 5555 5551 5547 5542 5538 5533 5528 5522 5517 5511 5505
5568 5568 5568 5568 5569 5569 5569 5569 5570 5570 5570 5570 5571 5571 5571 5571 5571 5571 5571 5571 5570 5569 5569 5567 5566 5564 5562 5559 5556 5553 5550 5547 5543 5539 5535 5531 5526 5521 5515 5510 5504 5499 5493
5559 5560 5560 5560 5560 5560 5560 5561 5561 5561 5561 5561 5562 5562 5561 5562 5561 5561 5561 5560 5560 5559 5558 5556 5555 5553 5550 5548 5545 5542 5539 5535 5531 5527 5523 5518 5513 5508 5503 5497 5492 5486 5481
5551 5551 5551 5551 5551 5551 5552 5552 5552 5552 5552 5552 5552 5552 5552 5552 5551 5551 5550 5550 5549 5548 5547 5545 5543 5541 5539 5536 5533 5530 5526 5523 5519 5515 5511 5506 5501 5496 5490 5485 5480 5474 5469
5542 5542 5542 5542 5542 5542 5542 5542 5542 5542 5542 5542 5542 5541 5541 5541 5541 5540 5540 5539 5538 5537 5535 5533 5532 5529 5527 5524 5521 5518 5514 5511 5507 5503 5498 5493 5488 5483 5478 5473 5467 5462 5457
5532 5532 5532 5532 5532 5532 5532 5532 5532 5532 5532 5531 5531 5531 5530 5530 5530 5529 5528 5527 5526 5525 5523 5521 5519 5517 5514 5511 5508 5505 5502 5498 5494 5490 5486 5481 5476 5471 5466 5460 5455 5450 5445
5523 5523 5522 5522 5522 5522 5522 5522 5521 5521 5521 5520 5520 5520 5519 5519 5518 5517 5516 5515 5514 5512 5511 5509 5507 5504 5502 5499 5496 5492 5489 5485 5481 5477 5473 5468 5463 5458 5453 5448 5443 5438 5432
5513 5513 5512 5512 5512 5512 5511 5511 5511 5510 5510 5509 5509 5508 5507 5507 5506 5505 5504 5503 5501 5500 5498 5496 5494 5491 5488 5486 5483 5479 5476 5472 5468 5464 5460 5455 5450 5445 5440 5435 5430 5425 5420
5504 5503 5502 5502 5502 5501 5501 5500 5500 5499 5498 5498 5497 5496 5496 5495 5494 5493 5491 5490 5488 5487 5485 5483 5481 5478 5475 5472 5469 5466 5463 5459 5455 5451 5447 5442 5438 5433 5428 5423 5418 5413 5407